Home > Weather > Jelgava > Past weeks

Flag for Latvia Past Weather in Jelgava, Latvia — Yesterday and Last 2 Weeks

Now
68 °F

Scattered clouds.


Feels Like: 68 °F
Forecast: 51 / 79 °F
Wind: 3 mph from Northwest

Location: Riga Airport

Current Time: Jun 28, 2016 at 12:51:53 PM

Latest Report: Jun 28, 2016 at 12:20 PM


Visibility: N/A

Pressure: 29.95 "Hg

Humidity: 64%

Dew Point: 55 °F

Location of JelgavaLocation

Past Weather in Jelgava — Graph

°F

Jelgava Temperature Yesterday

Maximum temperature yesterday: 68 °F (at 2:20 PM)
Minimum temperature yesterday: 55 °F (at 11:20 PM)
Average temperature yesterday: 65 °F

High & Low Weather Summary for the Past Weeks

 TemperatureHumidityPressure
High90 °F (Jun 25, 3:20 PM)100% (Jun 15, 10:50 PM)30.30 "Hg (Jun 15, 10:50 PM)
Low43 °F (Jun 14, 2:50 AM)38% (Jun 14, 6:50 PM)29.33 "Hg (Jun 18, 5:20 AM)
Average66 °F74%29.91 "Hg
* Reported Jun 13 11:20 AM — Jun 28 11:20 AM, Jelgava, Weather by CustomWeather, © 2016

Note: Actual official high and low records may vary slightly from our data, if they occured in-between our weather recording intervals... More about our weather records

Advertising

Jelgava Weather History for the Previous 24 Hours

Scroll right to see more
 ConditionsComfort  
Time TempWeatherWind HumidityBarometerVisibility
11:20 AM
Tue, Jun 28
68 °FScattered clouds.5 mph60%29.95 "HgN/A
10:50 AM68 °FPassing clouds.3 mph60%29.95 "HgN/A
10:20 AM68 °FPassing clouds.3 mph64%29.95 "HgN/A
9:50 AM66 °FPassing clouds.2 mph73%29.95 "HgN/A
9:20 AM64 °FPassing clouds.5 mph83%29.95 "HgN/A
8:50 AM63 °FPassing clouds.3 mph88%29.98 "HgN/A
8:20 AM59 °FPassing clouds.5 mph94%29.98 "HgN/A
7:50 AM59 °FPassing clouds.3 mph88%29.95 "HgN/A
7:20 AM57 °FSunny.2 mph94%29.98 "Hg10 mi
6:50 AM55 °FSunny.5 mph94%29.98 "Hg10 mi
6:20 AM54 °FSunny.3 mph94%29.95 "Hg10 mi
5:50 AM52 °FSunny.3 mph100%29.95 "Hg10 mi
5:20 AM52 °FClear.3 mph100%29.95 "Hg10 mi
4:50 AM52 °FClear.3 mph94%29.95 "Hg10 mi
4:20 AM52 °FClear.2 mph94%29.95 "Hg10 mi
3:50 AM50 °FClear.2 mph100%29.95 "Hg10 mi
3:20 AM52 °FClear.No wind94%29.95 "Hg6 mi
2:50 AM52 °FFog.No wind100%29.95 "HgN/A
2:20 AM52 °FFog.2 mph100%29.95 "HgN/A
1:50 AM54 °FClear.No wind94%29.95 "Hg10 mi
1:20 AM54 °FClear.No wind94%29.95 "Hg10 mi
12:50 AM54 °FClear.No wind100%29.95 "Hg10 mi
12:20 AM54 °FClear.No wind94%29.95 "Hg10 mi
11:50 PM
Mon, Jun 27
55 °FClear.No wind94%29.95 "Hg10 mi
11:20 PM55 °FSunny.No wind94%29.95 "Hg10 mi
10:50 PM57 °FSunny.No wind94%29.95 "Hg10 mi
10:20 PM59 °FSunny.No wind88%29.95 "Hg10 mi
9:50 PM63 °FSunny.2 mph77%29.95 "Hg10 mi
9:20 PM64 °FPassing clouds.6 mph68%29.95 "HgN/A
8:50 PM64 °FPassing clouds.8 mph73%29.95 "HgN/A
8:20 PM66 °FPassing clouds.9 mph64%29.92 "HgN/A
7:50 PM68 °FPassing clouds.7 mph64%29.95 "HgN/A
7:20 PM68 °FPassing clouds.8 mph64%29.95 "HgN/A
6:50 PM68 °FPassing clouds.8 mph64%29.92 "HgN/A
6:20 PM68 °FPassing clouds.8 mph64%29.92 "HgN/A
5:50 PM68 °FPassing clouds.7 mph60%29.92 "HgN/A
5:20 PM68 °FPassing clouds.8 mph64%29.92 "HgN/A
4:50 PM68 °FPassing clouds.9 mph69%29.92 "HgN/A
4:20 PM68 °FPassing clouds.8 mph60%29.92 "HgN/A
3:50 PM66 °FSunny.9 mph64%29.95 "Hg10 mi
3:20 PM68 °FScattered clouds.12 mph60%29.95 "HgN/A
2:50 PM68 °FScattered clouds.12 mph69%29.92 "HgN/A
2:20 PM68 °FScattered clouds.9 mph73%29.92 "HgN/A
1:50 PM66 °FScattered clouds.10 mph78%29.92 "HgN/A
1:20 PM66 °FScattered clouds.9 mph78%29.92 "HgN/A
12:50 PM64 °FMostly cloudy.10 mph83%29.92 "HgN/A
12:20 PM64 °FPartly sunny.10 mph88%29.92 "HgN/A
Weather by CustomWeather, © 2016

See weather overviewHow to use our weather pages